Flag for Russia Weather past 2 weeks in Sochi, Russia

Now
75 °F

More clouds than sun.


Feels Like: 77 °F
Forecast: 65 / 82 °F
Wind: 8 mph from Northwest

Location: Adler

Current Time: Jul 6, 2015 at 6:55:21 PM

Latest Report: Jul 6, 2015 at 6:30 PM


Visibility: N/A

Pressure: 29.95 "Hg

Humidity: 74%

Dew point: 66 °F

Location of SochiLocation

Historic Weather in Sochi — Graph

°F

Sochi temperature yesterday

Maximum temperature yesterday: 79 °F (at 11:00 AM)
Minimum temperature yesterday: 70 °F (at 1:00 AM)
Average temperature yesterday: 75 °F

Past Weeks' High & Low Weather Summary

 TemperatureHumidityPressure
High82 °F (Jun 24, 1:00 PM)94% (Jun 23, 4:30 AM)30.09 "Hg (Jun 23, 4:30 AM)
Low63 °F (Jun 28, 3:30 AM)47% (Jun 29, 4:30 PM)29.71 "Hg (Jun 25, 2:00 PM)
Average72 °F78%29.89 "Hg
* Reported Jun 21 6:00 PM — Jul 6 6:00 PM, Sochi, Weather by CustomWeather, © 2015

Note: Actual official high and low records may vary slightly from our data, if they occured in-between our weather recording intervals... More about our weather records

Advertising

Sochi weather history for previous 24 hours

 ConditionsComfort  
Time TempWeatherWind HumidityBarometerVisibility
6:00 PM
Mon, Jul 6
75 °FMostly cloudy.8 mph74%29.92 "HgN/A
5:30 PM75 °FMostly cloudy.8 mph78%29.92 "HgN/A
5:00 PM75 °FMostly cloudy.8 mph74%29.92 "HgN/A
4:30 PM75 °FMore clouds than sun.8 mph78%29.95 "HgN/A
4:00 PM75 °FMore clouds than sun.6 mph78%29.95 "HgN/A
3:30 PM75 °FMore clouds than sun.3 mph78%29.95 "HgN/A
3:00 PM75 °FMore clouds than sun.3 mph78%29.95 "HgN/A
2:30 PM73 °FSprinkles. Mostly cloudy.3 mph83%29.95 "HgN/A
2:00 PM72 °FSprinkles. Mostly cloudy.1 mph88%29.95 "HgN/A
1:30 PM72 °FMostly cloudy.3 mph88%29.95 "HgN/A
1:00 PM70 °FMostly cloudy.3 mph88%29.95 "HgN/A
12:30 PM70 °FSprinkles. Overcast.3 mph88%29.95 "HgN/A
12:00 PM68 °FSprinkles. Overcast.3 mph94%29.98 "HgN/A
11:30 AM70 °FSprinkles. Overcast.3 mph88%29.95 "HgN/A
10:30 AM70 °FSprinkles. More clouds than sun.3 mph88%29.95 "HgN/A
10:00 AM68 °FSprinkles. More clouds than sun.6 mph94%29.95 "Hg4 mi
9:30 AM68 °FSprinkles. More clouds than sun.6 mph88%29.95 "HgN/A
9:00 AM68 °FSprinkles. Overcast.8 mph88%29.95 "Hg6 mi
8:30 AM68 °FSprinkles. Overcast.6 mph94%29.95 "HgN/A
8:00 AM68 °FSprinkles. Overcast.8 mph88%29.95 "Hg6 mi
7:30 AM68 °FSprinkles. Overcast.8 mph88%29.95 "Hg4 mi
7:00 AM68 °FSprinkles. Overcast.3 mph94%29.95 "Hg6 mi
6:30 AM68 °FSprinkles. Overcast.6 mph94%29.95 "Hg4 mi
6:00 AM68 °FSprinkles. Overcast.6 mph94%29.95 "Hg4 mi
5:30 AM68 °FSprinkles. Overcast.6 mph88%29.95 "Hg2 mi
5:10 AM68 °FSprinkles. Mostly cloudy.1 mph88%29.95 "Hg2 mi
5:00 AM68 °FSprinkles. Mostly cloudy.1 mph94%29.95 "Hg3 mi
4:30 AM68 °FSprinkles. Overcast.1 mph94%29.95 "HgN/A
4:00 AM70 °FSprinkles. Overcast.1 mph83%29.95 "HgN/A
3:30 AM70 °FSprinkles. Overcast.3 mph83%29.95 "HgN/A
3:00 AM73 °FSprinkles. Overcast.3 mph69%29.95 "HgN/A
2:30 AM73 °FOvercast.3 mph83%29.95 "HgN/A
2:00 AM73 °FOvercast.1 mph83%29.95 "HgN/A
1:30 AM73 °FOvercast.3 mph83%29.95 "HgN/A
1:00 AM73 °FOvercast.3 mph83%29.95 "HgN/A
12:30 AM73 °FOvercast.3 mph83%29.95 "HgN/A
12:00 AM73 °FOvercast.6 mph83%29.95 "HgN/A
11:30 PM
Sun, Jul 5
75 °FOvercast.3 mph78%29.95 "HgN/A
11:00 PM75 °FOvercast.6 mph78%29.95 "HgN/A
10:30 PM75 °FOvercast.6 mph78%29.95 "HgN/A
10:00 PM75 °FOvercast.6 mph78%29.95 "HgN/A
9:30 PM75 °FOvercast.6 mph78%29.95 "HgN/A
9:00 PM75 °FOvercast.6 mph78%29.95 "HgN/A
8:30 PM75 °FOvercast.8 mph78%29.95 "HgN/A
8:00 PM75 °FOvercast.8 mph78%29.92 "HgN/A
7:30 PM75 °FMostly cloudy.8 mph78%29.92 "HgN/A
7:00 PM75 °FMostly cloudy.8 mph78%29.92 "HgN/A
6:30 PM75 °FOvercast.8 mph78%29.92 "HgN/A
6:00 PM75 °FOvercast.8 mph83%29.92 "HgN/A
Weather by CustomWeather, © 2015

See weather overviewHow to use our weather pages